Home   Weather   Bydgoszcz   Past weeks

Flag for Poland Past Weather in Bydgoszcz, Poland — Yesterday and Last 2 Weeks

Now
61 °F

Overcast.


Feels Like: 61 °F
Forecast: 56 / 68 °F
Wind: 2 mph from Southwest

Location: Torun

Current Time: Sep 29, 2016 at 10:32:58 AM

Latest Report: Sep 29, 2016 at 9:00 AM


Visibility: 19 mi

Pressure: 30.04 "Hg

Humidity: 73%

Dew Point: 53 °F

Location of BydgoszczLocation

Past Weather in Bydgoszcz — Graph

°F

Bydgoszcz Temperature Yesterday

Maximum temperature yesterday: 65 °F (at 5:00 PM)
Minimum temperature yesterday: 36 °F (at 2:00 AM)
Average temperature yesterday: 53 °F

High & Low Weather Summary for the Past Weeks

 TemperatureHumidityPressure
High76 °F (Sep 16, 3:00 PM)98% (Sep 22, 4:00 AM)30.38 "Hg (Sep 22, 4:00 AM)
Low35 °F (Sep 25, 7:00 AM)30% (Sep 16, 4:00 PM)29.92 "Hg (Sep 16, 6:00 PM)
Average55 °F71%30.14 "Hg
* Reported Sep 14 9:00 AM — Sep 29 9:00 AM, Bydgoszcz, Weather by CustomWeather, © 2016

Note: Actual official high and low records may vary slightly from our data, if they occured in-between our weather recording intervals... More about our weather records

Advertising

Bydgoszcz Weather History for the Previous 24 Hours

Scroll right to see more
 ConditionsComfort  
Time TempWeatherWind HumidityBarometerVisibility
9:00 AM
Thu, Sep 29
61 °FOvercast.2 mph73%30.04 "Hg19 mi
8:00 AM61 °FOvercast.2 mph75%30.04 "Hg16 mi
7:00 AM59 °FOvercast.1 mph78%30.03 "Hg19 mi
6:00 AM58 °FOvercast.1 mph80%30.04 "Hg22 mi
5:00 AM58 °FOvercast.1 mph81%30.03 "Hg22 mi
4:00 AM59 °FPassing clouds.2 mph76%30.03 "Hg22 mi
3:00 AM59 °FOvercast.1 mph75%30.04 "Hg31 mi
2:00 AM60 °FOvercast.1 mph71%30.04 "Hg28 mi
1:00 AM62 °FOvercast.2 mph67%30.04 "Hg31 mi
12:00 AM63 °FOvercast.3 mph65%30.03 "Hg28 mi
11:00 PM
Wed, Sep 28
62 °FOvercast.2 mph64%30.03 "Hg25 mi
10:00 PM62 °FOvercast.2 mph66%30.03 "Hg22 mi
9:00 PM63 °FOvercast.2 mph68%30.03 "Hg22 mi
8:00 PM63 °FOvercast.2 mph69%30.04 "Hg19 mi
7:00 PM63 °FOvercast.2 mph69%30.03 "Hg19 mi
6:00 PM64 °FOvercast.3 mph67%30.03 "Hg19 mi
5:00 PM65 °FPartly sunny.3 mph64%30.03 "Hg19 mi
4:00 PM64 °FLight rain. Overcast.3 mph68%30.03 "Hg13 mi
3:00 PM64 °FOvercast.2 mph64%30.05 "Hg9 mi
2:00 PM63 °FOvercast.3 mph66%30.07 "Hg7 mi
1:00 PM63 °FOvercast.3 mph67%30.10 "Hg6 mi
12:00 PM61 °FOvercast.3 mph68%30.12 "Hg6 mi
11:00 AM59 °FOvercast.3 mph67%30.14 "Hg6 mi
10:00 AM56 °FFog.2 mph72%30.18 "Hg6 mi
Weather by CustomWeather, © 2016

See weather overviewHow to use our weather pages